PBO Station Position Time Series. Reference Frame : NAM14
Format Version,1.1.0
4-character ID,DUBO
Station name,Lac_du_Bonnet
Begin Date, 1996-10-19
End Date, 2019-10-07
Release Date, 2019-10-08
Reference position, 50.2588088289 North Latitude, -95.8661818230 East Longitude, 245.27718 meters elevation,
Date, North (mm), East (mm), Vertical (mm), North Std. Deviation (mm), East Std. Deviation (mm),              Vertical Std. Deviation (mm), Quality,
1996-10-19,0.00, 0.00, 0.00, 2.60, 1.87, 8.40, repro,
1996-10-20,0.45, -0.39, -9.40, 2.58, 1.85, 8.35, repro,
1996-10-21,-0.37, 0.41, 3.76, 2.72, 1.98, 8.60, repro,
1996-10-22,0.14, -0.01, 2.11, 2.58, 1.88, 8.20, repro,
1996-10-23,-1.20, -1.33, 7.01, 2.90, 2.12, 9.36, repro,
1996-10-24,-1.66, -1.17, 4.41, 2.50, 1.79, 8.09, repro,
1996-10-25,-0.30, 0.99, 5.86, 2.54, 1.85, 8.02, repro,
1996-10-26,-1.69, -0.74, -6.60, 2.60, 1.88, 8.20, repro,
1996-10-27,-0.33, -1.36, -1.54, 2.72, 1.93, 8.40, repro,
1996-10-28,-0.32, -0.50, -4.13, 2.56, 1.88, 8.16, repro,
1996-10-29,-1.20, -0.89, -0.08, 2.46, 1.77, 7.92, repro,
1996-10-30,-1.86, -2.52, 0.85, 2.50, 1.79, 8.09, repro,
1996-10-31,-2.38, -1.96, -1.74, 2.58, 1.91, 8.20, repro,
1996-11-01,-3.53, -1.66, -5.22, 2.53, 1.83, 7.97, repro,
1996-11-02,-2.30, -0.20, -4.97, 2.75, 2.03, 9.13, repro,
1996-11-03,-1.75, 0.58, 3.14, 2.80, 2.03, 8.93, repro,
1996-11-04,-0.94, 0.45, -4.54, 2.91, 2.07, 9.57, repro,
1996-11-05,-1.17, 0.01, -0.82, 2.79, 2.00, 8.67, repro,
1996-11-06,-12.43, -0.27, 2.84, 3.25, 2.19, 10.01, repro,
1996-11-07,-25.88, 13.97, 7.52, 2.81, 1.97, 8.45, repro,
1996-11-08,-5.44, 4.78, 12.11, 2.74, 1.93, 8.67, repro,
1996-11-09,-3.15, 4.52, 7.05, 3.20, 2.31, 10.16, repro,
1996-11-10,-2.97, 3.95, 7.56, 3.18, 2.37, 10.47, repro,
1996-11-11,-5.44, 2.67, 4.08, 2.99, 2.09, 9.61, repro,
1996-11-12,-3.64, 3.64, 1.48, 2.75, 1.99, 8.62, repro,
1996-11-13,-4.22, 4.02, 7.48, 2.76, 1.98, 8.64, repro,
1996-11-14,-3.85, 5.90, 7.03, 2.70, 1.95, 8.31, repro,
1996-11-15,-4.28, 6.05, 4.26, 2.74, 1.95, 8.55, repro,
1996-11-16,-5.01, 4.43, 7.98, 2.86, 1.99, 8.86, repro,
1996-11-17,-3.31, 5.60, 8.59, 3.15, 2.27, 10.35, repro,
1996-11-18,-4.45, 4.56, 10.63, 3.02, 2.21, 9.56, repro,
1996-11-19,-2.14, 6.39, 2.78, 3.27, 2.30, 10.26, repro,
1996-11-20,-1.87, 6.68, 7.05, 2.80, 2.02, 8.87, repro,
1996-11-21,-3.62, 5.40, 8.65, 2.79, 1.98, 8.75, repro,
1996-11-22,-4.07, 4.15, 8.23, 3.08, 2.06, 9.13, repro,
1996-11-23,-5.10, 4.28, 9.84, 2.89, 2.00, 8.99, repro,
1996-11-24,-5.48, 4.70, 3.63, 2.99, 2.12, 9.85, repro,
1996-11-25,-5.07, 4.64, 5.37, 3.04, 2.20, 10.23, repro,
1996-11-26,-4.23, 4.35, -3.04, 2.80, 1.95, 8.68, repro,
1996-11-27,-3.97, 6.28, 4.17, 2.95, 2.15, 9.23, repro,
1996-11-28,-3.57, 7.15, 11.73, 3.01, 2.02, 9.09, repro,
1996-11-29,-7.04, 5.74, 12.38, 3.15, 2.07, 9.27, repro,
1996-11-30,-3.05, 5.18, 16.38, 3.32, 2.41, 10.74, repro,
1996-12-01,-4.35, 5.89, 15.91, 3.00, 2.16, 9.88, repro,
1996-12-02,-3.10, 7.10, 17.06, 3.12, 2.27, 10.29, repro,
1996-12-03,0.23, 6.80, 6.68, 2.78, 2.00, 8.61, repro,
1996-12-04,-3.02, 6.03, 12.42, 3.09, 2.18, 9.89, repro,
1996-12-05,-1.76, 7.55, 22.75, 2.94, 2.14, 9.77, repro,
1996-12-06,-4.28, 6.98, 35.45, 3.10, 2.26, 9.74, repro,
1996-12-07,-2.05, 4.97, 24.20, 2.94, 2.20, 9.66, repro,
1996-12-08,-2.65, 4.17, 19.44, 2.90, 2.09, 9.34, repro,
1996-12-09,-1.08, 5.89, 17.62, 2.97, 2.12, 9.29, repro,
1996-12-10,1.11, 5.08, 17.41, 3.14, 2.25, 9.87, repro,
1996-12-11,-1.51, 7.79, 15.40, 2.93, 2.07, 9.04, repro,
1996-12-12,-1.77, 6.60, 16.37, 2.70, 1.96, 8.46, repro,
1996-12-13,-2.50, 4.32, 18.93, 2.72, 1.99, 8.31, repro,
1996-12-14,-0.97, 6.09, 11.45, 2.67, 1.92, 8.28, repro,
1996-12-15,-2.01, 6.43, 7.81, 2.77, 1.98, 8.58, repro,
1996-12-16,-0.41, 4.63, 15.10, 2.54, 1.79, 7.91, repro,
1996-12-17,1.12, 3.86, 15.46, 2.80, 2.03, 8.79, repro,
1996-12-18,1.34, 4.35, 8.80, 2.60, 1.85, 7.91, repro,
1996-12-19,-0.31, 5.02, 12.95, 2.69, 1.95, 8.48, repro,
1996-12-20,-0.08, 5.29, 17.92, 2.73, 1.97, 8.47, repro,
1996-12-21,0.50, 6.57, 13.89, 2.69, 1.93, 8.17, repro,
1996-12-22,1.57, 7.04, 11.99, 2.64, 1.91, 8.12, repro,
1996-12-23,-0.16, 6.09, 9.83, 2.68, 1.94, 8.13, repro,
1996-12-24,1.30, 5.04, 8.08, 2.73, 1.94, 8.38, repro,
1996-12-25,-0.97, 4.50, 6.28, 2.71, 1.99, 8.70, repro,
1996-12-26,-0.62, 5.89, 16.27, 2.70, 1.95, 8.22, repro,
1996-12-27,-0.06, 6.62, 14.81, 2.69, 1.93, 8.25, repro,
1996-12-28,0.49, 5.96, 17.88, 2.65, 1.91, 8.11, repro,
1996-12-29,-1.00, 6.16, 15.25, 2.69, 1.96, 8.45, repro,
1996-12-30,-0.64, 7.57, 10.41, 2.99, 2.11, 9.10, repro,
1996-12-31,-0.35, 6.40, 16.34, 2.86, 2.05, 8.83, repro,
1997-01-01,1.84, 6.87, 14.29, 2.69, 1.93, 8.25, repro,
1997-01-02,0.28, 5.78, 23.52, 2.91, 2.08, 9.14, repro,
1997-01-03,0.32, 4.34, 12.24, 2.93, 2.10, 9.18, repro,
1997-01-04,-0.07, 5.16, 4.57, 2.87, 2.03, 8.82, repro,
1997-01-05,0.41, 4.19, 3.64, 2.81, 2.02, 8.94, repro,
1997-01-06,-1.00, 4.16, -2.85, 3.02, 2.15, 9.33, repro,
1997-01-07,-1.50, 4.86, -4.54, 2.81, 2.01, 8.82, repro,
1997-01-08,0.26, 3.78, -4.21, 2.91, 2.06, 9.58, repro,
1997-01-09,0.37, 6.33, 1.36, 2.91, 2.02, 9.14, repro,
1997-01-10,1.09, 3.96, -0.45, 2.56, 1.89, 8.32, repro,
1997-01-11,0.30, 3.98, -6.26, 2.72, 1.91, 8.54, repro,
1997-01-12,-1.22, 4.85, -16.00, 3.07, 2.18, 9.85, repro,
1997-01-13,-0.22, 5.81, -5.48, 2.66, 1.94, 8.88, repro,
1997-01-14,-0.10, 6.37, -3.31, 2.68, 1.95, 8.77, repro,
1997-01-15,0.67, 4.89, 3.10, 2.74, 1.98, 8.78, repro,
1997-01-16,1.63, 3.72, -10.15, 3.06, 2.14, 9.92, repro,
1997-01-17,0.96, 5.24, -5.91, 3.17, 2.26, 10.36, repro,
1997-01-18,-0.81, 6.63, -0.17, 3.09, 2.21, 10.10, repro,
1997-01-19,0.89, 6.56, 3.37, 2.87, 2.07, 9.03, repro,
1997-01-20,-2.04, 4.23, -1.62, 2.75, 1.95, 8.80, repro,
1997-01-21,-0.06, 5.58, 8.63, 2.87, 2.03, 9.11, repro,
1997-01-22,-0.33, 3.73, 0.80, 3.17, 2.16, 9.44, repro,
1997-01-23,0.47, 4.38, -8.46, 2.91, 2.03, 8.92, repro,
1997-01-24,1.31, 3.73, 0.55, 3.10, 2.16, 9.53, repro,
1997-01-25,-0.93, 2.95, -9.57, 2.73, 2.00, 8.76, repro,
1997-01-26,-1.33, 3.82, -12.48, 2.78, 1.97, 8.66, repro,
1997-01-27,-1.54, 4.92, -12.55, 3.26, 2.36, 9.80, repro,
1997-01-28,-0.45, 4.34, -9.81, 2.64, 1.90, 8.41, repro,
1997-01-29,-1.65, 6.26, -14.05, 2.68, 1.92, 8.56, repro,
1997-01-30,-1.63, 6.86, 4.50, 2.58, 1.86, 8.05, repro,
1997-01-31,-0.28, 5.76, 13.18, 2.76, 1.99, 8.65, repro,
1997-02-01,0.09, 4.87, 10.28, 2.93, 2.02, 8.97, repro,
1997-02-24,-2.30, 3.47, -9.13, 2.86, 2.09, 8.88, repro,
1997-02-25,-0.85, 2.31, 6.67, 2.58, 1.86, 8.14, repro,
1997-02-26,-0.67, 2.91, -2.28, 2.83, 2.02, 8.89, repro,
1997-02-27,-0.51, 3.24, 10.20, 3.04, 2.17, 9.52, repro,
1997-02-28,0.17, 3.13, -1.50, 2.85, 2.01, 8.93, repro,
1997-03-01,0.67, 3.15, 6.69, 2.89, 2.08, 8.97, repro,
1997-03-02,-0.39, 1.24, -2.37, 2.90, 2.08, 9.28, repro,
1997-03-03,-1.47, 3.90, -4.76, 2.60, 1.89, 8.34, repro,
1997-03-04,-1.98, 3.39, -12.74, 2.81, 2.03, 9.23, repro,
1997-03-05,-0.69, 4.01, -5.94, 2.71, 1.93, 8.66, repro,
1997-03-06,-2.00, 2.17, -6.19, 2.69, 1.95, 8.64, repro,
1997-03-07,-1.63, 4.38, -3.56, 2.64, 1.86, 8.30, repro,
1997-03-08,0.51, 2.54, -2.53, 2.87, 2.07, 9.05, repro,
1997-03-09,-0.33, 5.02, 0.34, 2.95, 2.08, 9.10, repro,
1997-03-10,-0.78, 2.69, 6.02, 2.86, 2.09, 9.18, repro,
1997-03-11,-1.26, 1.96, -8.78, 2.67, 1.92, 8.64, repro,
1997-03-12,0.29, 2.66, -17.01, 2.81, 1.98, 8.82, repro,
1997-03-13,-0.77, 1.50, -14.20, 2.84, 2.06, 9.27, repro,
1997-03-14,-0.73, 1.40, -11.57, 3.07, 2.16, 9.55, repro,
1997-03-15,-0.62, 2.12, -7.53, 2.80, 2.03, 9.11, repro,
1997-03-16,0.54, 5.07, -4.17, 2.62, 1.89, 8.30, repro,
1997-03-17,0.46, 2.58, -6.65, 2.60, 1.83, 8.41, repro,
1997-03-18,-0.61, 4.18, -7.32, 2.61, 1.88, 8.27, repro,
1997-03-19,-1.59, 3.14, 1.19, 2.65, 1.92, 8.44, repro,
1997-03-20,-0.68, 4.35, -3.42, 2.50, 1.79, 8.05, repro,
1997-03-21,-0.04, 2.97, 0.80, 2.67, 1.86, 8.56, repro,
1997-03-22,-1.44, 1.93, -1.36, 2.56, 1.77, 8.08, repro,
1997-03-23,-1.24, 2.98, -0.74, 2.56, 1.79, 8.16, repro,
1997-03-24,0.60, 4.16, -4.21, 2.67, 1.96, 8.48, repro,
1997-03-25,-0.51, 2.29, -4.71, 2.61, 1.87, 8.36, repro,
1997-03-26,-0.89, 2.88, 5.35, 2.64, 1.89, 8.70, repro,
1997-03-27,-0.53, 3.30, 8.12, 2.74, 1.98, 8.85, repro,
1997-03-28,-1.17, 2.78, 7.11, 2.55, 1.78, 8.14, repro,
1997-03-29,0.42, 2.56, -1.16, 2.60, 1.82, 8.21, repro,
1997-03-30,-1.25, 3.09, -7.52, 2.53, 1.78, 8.06, repro,
1997-03-31,-1.66, 4.56, 2.61, 2.63, 1.85, 8.38, repro,
1997-04-01,-1.89, 5.37, -3.84, 2.68, 1.88, 8.53, repro,
1997-04-02,0.46, 3.87, -0.96, 2.71, 1.94, 8.49, repro,
1997-04-03,-2.39, 3.94, -3.04, 2.56, 1.79, 8.16, repro,
1997-04-04,-0.68, 3.82, -0.16, 2.64, 1.82, 8.46, repro,
1997-04-05,-1.11, 4.67, -5.53, 2.58, 1.80, 8.31, repro,
1997-04-06,-3.00, 5.96, 7.66, 2.65, 1.92, 8.50, repro,
1997-04-07,-4.51, 5.75, -6.07, 2.70, 1.83, 8.54, repro,
1997-04-08,-4.37, 5.66, -5.75, 2.84, 2.04, 9.17, repro,
1997-04-09,-4.71, 6.65, -14.90, 2.82, 2.01, 9.15, repro,
1997-04-10,-4.81, 6.42, -8.65, 2.67, 1.93, 8.49, repro,
1997-04-11,-3.12, 4.92, -10.32, 3.20, 2.37, 10.77, repro,
1997-04-12,-0.60, 3.61, -6.44, 2.68, 1.89, 8.66, repro,
1997-04-13,-0.92, 3.41, -2.25, 2.63, 1.83, 8.52, repro,
1997-04-14,-2.68, 4.63, -1.09, 2.65, 1.85, 8.61, repro,
1997-04-15,-0.77, 3.63, 0.72, 2.70, 1.93, 8.59, repro,
1997-04-16,-1.19, 3.80, -4.35, 2.83, 2.07, 9.30, repro,
1997-04-17,-1.84, 4.46, -5.12, 3.02, 2.11, 9.72, repro,
1997-04-18,0.05, 4.46, 1.56, 2.81, 2.01, 9.14, repro,
1997-04-19,-0.82, 2.57, -4.93, 2.60, 1.81, 8.36, repro,
1997-04-20,-1.66, 3.12, -0.82, 2.62, 1.82, 8.39, repro,
1997-04-21,-0.95, 3.36, -5.22, 2.76, 1.90, 8.80, repro,
1997-04-22,-2.11, 2.47, -5.46, 2.90, 2.06, 9.80, repro,
1997-04-23,0.61, 3.43, 0.59, 2.64, 1.89, 8.31, repro,
1997-04-24,-0.68, 3.10, -9.29, 2.65, 1.86, 8.48, repro,
1997-04-25,1.06, 4.15, -2.17, 2.78, 1.95, 8.75, repro,
1997-04-26,-0.46, 3.33, -5.41, 2.74, 1.96, 8.97, repro,
1997-04-27,0.22, 3.27, -7.73, 2.62, 1.85, 8.34, repro,
1997-04-28,0.07, 2.57, 7.94, 2.82, 1.99, 9.03, repro,
1997-04-29,0.70, 2.02, 10.61, 2.74, 1.96, 9.06, repro,
1997-04-30,-0.87, 3.25, 9.99, 2.56, 1.78, 8.14, repro,
1997-05-01,0.38, 4.00, 6.88, 2.62, 1.85, 8.23, repro,
1997-05-02,-0.79, 2.43, -4.03, 2.61, 1.84, 8.42, repro,
1997-05-03,-0.65, 2.71, -0.82, 2.68, 1.95, 8.54, repro,
1997-05-04,-0.61, 3.18, 0.62, 2.62, 1.88, 8.49, repro,
1997-05-05,1.25, 3.01, 3.84, 2.73, 1.96, 8.56, repro,
1997-05-06,-0.16, 2.74, -3.48, 2.63, 1.85, 8.44, repro,
1997-05-07,0.10, 5.65, -3.01, 2.65, 1.90, 8.39, repro,
1997-05-08,-0.07, 3.18, -3.08, 2.49, 1.74, 7.91, repro,
1997-05-09,-0.80, 2.82, -6.97, 2.59, 1.81, 8.22, repro,
1997-05-10,1.29, 5.08, -2.76, 2.84, 2.01, 8.81, repro,
1997-05-11,-0.04, 2.91, -1.01, 2.51, 1.75, 7.94, repro,
1997-05-12,-0.72, 3.84, -1.55, 2.52, 1.77, 8.09, repro,
1997-05-13,0.05, 3.00, 1.50, 2.50, 1.75, 8.10, repro,
1997-05-14,0.55, 3.53, -0.67, 2.51, 1.76, 7.97, repro,
1997-05-15,0.28, 1.93, 2.53, 3.28, 2.37, 10.31, repro,
1997-05-16,-1.33, 3.13, -2.67, 2.54, 1.78, 8.14, repro,
1997-05-17,0.02, 3.16, -1.38, 2.62, 1.81, 8.28, repro,
1997-05-18,-1.19, 4.05, -3.36, 2.60, 1.83, 8.28, repro,
1997-05-19,0.97, 2.26, -0.45, 2.72, 1.90, 8.66, repro,
1997-05-20,0.31, 2.71, -2.55, 2.74, 1.92, 8.67, repro,
1997-05-21,0.31, 4.28, -3.22, 2.66, 1.87, 8.73, repro,
1997-05-22,-1.94, 3.17, -0.25, 2.59, 1.82, 8.37, repro,
1997-05-23,-1.26, 3.63, 0.83, 2.63, 1.82, 8.32, repro,
1997-05-24,-0.47, 3.74, 0.64, 2.54, 1.79, 8.21, repro,
1997-05-25,0.73, 2.92, -0.20, 2.55, 1.79, 8.17, repro,
1997-05-26,-0.55, 2.07, 0.86, 2.62, 1.83, 8.36, repro,
1997-05-27,-1.20, 3.60, -5.96, 2.74, 1.91, 9.11, repro,
1997-05-28,-0.18, 2.78, -3.36, 2.52, 1.78, 8.14, repro,
1997-05-29,0.07, 3.40, 3.90, 2.60, 1.76, 8.22, repro,
1997-05-30,-2.26, 1.92, 2.62, 2.57, 1.78, 8.19, repro,
1997-05-31,-1.47, 3.56, 6.46, 2.51, 1.78, 8.10, repro,
1997-06-01,-2.67, 3.96, 8.02, 2.53, 1.77, 8.10, repro,
1997-06-02,-1.45, 4.54, 4.80, 2.68, 1.87, 8.83, repro,
1997-06-03,-0.85, 3.03, 0.31, 2.62, 1.81, 8.31, repro,
1997-06-04,-2.39, 3.11, -1.65, 2.51, 1.75, 8.04, repro,
1997-06-05,-0.21, 2.37, 0.69, 2.60, 1.78, 8.04, repro,
1997-06-06,-1.61, 2.88, 9.28, 2.51, 1.75, 8.08, repro,
1997-06-07,0.30, 3.29, 3.69, 2.47, 1.73, 7.92, repro,
1997-06-08,-0.60, 3.92, 6.26, 2.55, 1.77, 8.17, repro,
1997-06-09,-2.16, 3.15, -1.41, 2.89, 2.07, 9.82, repro,
1997-06-10,-0.91, 4.79, 1.61, 2.91, 2.01, 9.41, repro,
1997-06-11,0.03, 2.01, 5.59, 2.67, 1.84, 8.44, repro,
1997-06-12,0.19, 2.62, 10.84, 2.62, 1.87, 8.36, repro,
1997-06-13,0.35, 1.98, 7.10, 2.53, 1.77, 8.09, repro,
1997-06-14,-1.19, 2.30, 11.69, 2.64, 1.86, 8.50, repro,
1997-06-15,1.44, 2.23, 9.98, 2.62, 1.79, 8.34, repro,
1997-06-16,0.51, 2.70, 13.15, 2.62, 1.80, 8.22, repro,
1997-06-17,0.00, 2.63, 11.38, 2.51, 1.74, 7.97, repro,
1997-06-18,-0.40, 2.61, 8.73, 2.58, 1.80, 8.28, repro,
1997-06-19,-1.34, 3.75, 9.00, 2.55, 1.77, 8.08, repro,
1997-06-20,1.38, 4.38, 16.17, 2.86, 2.02, 8.95, repro,
1997-06-21,0.44, 6.14, 7.06, 2.52, 1.74, 8.01, repro,
1997-06-22,-0.58, 2.58, 12.27, 2.65, 1.81, 8.45, repro,
1997-06-23,-1.49, 2.49, 4.61, 2.55, 1.79, 8.33, repro,
1997-06-24,-1.52, 2.97, 9.10, 2.58, 1.79, 8.19, repro,
1997-06-25,-1.65, 2.40, 9.92, 2.71, 1.87, 8.74, repro,
1997-06-26,-0.28, 1.81, 10.49, 2.52, 1.75, 8.07, repro,
1997-06-27,-0.60, 2.31, 18.98, 2.62, 1.79, 8.33, repro,
1997-06-28,-2.31, 2.90, 8.23, 2.60, 1.82, 8.33, repro,
1997-06-29,0.03, 3.97, 6.35, 2.58, 1.76, 8.08, repro,
1997-06-30,-1.29, 2.91, 6.21, 2.52, 1.74, 8.12, repro,
1997-07-01,0.71, 4.44, 7.09, 2.64, 1.82, 8.60, repro,
1997-07-02,-1.13, 2.53, 10.55, 2.63, 1.79, 8.33, repro,
1997-07-03,-1.41, 2.95, 4.28, 2.61, 1.81, 8.46, repro,
1997-07-04,-2.72, 2.88, 4.76, 2.60, 1.77, 8.14, repro,
1997-07-05,-1.14, 2.78, 3.47, 2.56, 1.80, 8.26, repro,
1997-07-06,-1.38, 2.37, 3.38, 2.55, 1.77, 8.19, repro,
1997-07-07,-1.73, 4.11, 7.53, 2.52, 1.75, 8.10, repro,
1997-07-08,0.71, 4.48, 3.97, 2.67, 1.85, 8.65, repro,
1997-07-09,-0.52, 5.45, 7.27, 2.72, 1.85, 8.48, repro,
1997-07-10,-2.20, 4.47, 6.74, 2.51, 1.78, 8.25, repro,
1997-07-11,-1.94, 4.33, 3.93, 2.59, 1.78, 8.36, repro,
1997-07-12,-2.27, 3.94, 1.38, 2.97, 2.07, 9.91, repro,
1997-07-13,-1.77, 2.72, -0.33, 2.67, 1.82, 8.49, repro,
1997-07-15,-1.54, 2.63, 6.56, 2.69, 1.91, 8.62, repro,
1997-07-16,-1.33, 3.82, 9.57, 2.68, 1.94, 8.68, repro,
1997-07-17,-0.70, 2.14, 3.79, 2.53, 1.78, 8.11, repro,
1997-07-18,-0.56, 3.29, 5.36, 2.53, 1.76, 8.14, repro,
1997-07-19,1.10, 5.19, 5.82, 2.80, 1.91, 9.12, repro,
1997-07-20,-0.54, 2.66, 7.38, 2.66, 1.85, 8.41, repro,
1997-07-21,-2.10, 3.23, 5.49, 2.51, 1.76, 7.95, repro,
1997-07-22,-0.77, 5.92, 10.57, 2.53, 1.78, 8.13, repro,
1997-07-23,-1.56, 2.21, 11.55, 2.67, 1.83, 8.35, repro,
1997-07-24,-3.04, 4.00, 8.66, 2.69, 1.84, 8.38, repro,
1997-07-25,-2.73, 3.99, 17.44, 3.01, 2.08, 9.84, repro,
1997-07-26,-0.70, 1.28, 0.30, 2.60, 1.81, 8.34, repro,
1997-07-27,-0.18, 3.54, 7.77, 2.70, 1.88, 8.75, repro,
1997-07-28,-0.90, 3.34, 7.82, 2.66, 1.82, 8.58, repro,
1997-07-29,-1.72, 3.19, 5.41, 2.65, 1.80, 8.31, repro,
1997-07-30,-1.55, 2.30, 9.35, 2.66, 1.87, 8.65, repro,
1997-07-31,-2.35, 3.88, 8.19, 2.70, 1.84, 8.41, repro,
1997-08-01,-1.45, 2.98, 8.08, 2.56, 1.81, 8.17, repro,
1997-08-02,-1.23, 2.29, 4.94, 2.55, 1.75, 8.09, repro,
1997-08-03,-0.81, 3.08, 7.54, 2.67, 1.81, 8.47, repro,
1997-08-04,-1.63, 2.99, 1.32, 2.66, 1.84, 8.46, repro,
1997-08-05,-2.26, 2.49, 6.76, 2.82, 1.95, 8.77, repro,
1997-08-06,-1.61, 3.04, 5.05, 2.60, 1.81, 8.30, repro,
1997-08-07,-1.43, 2.83, 18.81, 2.63, 1.80, 8.21, repro,
1997-08-08,1.02, 4.95, 20.22, 3.18, 2.27, 10.46, repro,
1997-08-09,-1.91, 4.15, 20.23, 2.74, 1.90, 8.65, repro,
1997-08-10,-0.79, 3.54, 5.22, 2.61, 1.80, 8.21, repro,
1997-08-11,-1.23, 5.59, 7.05, 2.60, 1.82, 8.24, repro,
1997-08-12,-0.01, 4.21, 6.69, 2.70, 1.85, 8.51, repro,
1997-08-13,0.11, 4.04, 5.10, 2.58, 1.78, 8.15, repro,
1997-08-14,-0.91, 3.67, 20.17, 2.68, 1.84, 8.33, repro,
1997-08-15,0.70, 4.99, 16.76, 2.59, 1.80, 8.11, repro,
1997-08-16,0.53, 3.74, 13.12, 2.60, 1.81, 8.16, repro,
1997-08-17,0.56, 3.55, 3.45, 2.62, 1.89, 8.48, repro,
1997-08-18,0.60, 4.95, 5.17, 2.73, 1.87, 8.63, repro,
1997-08-19,-1.15, 3.54, 11.06, 2.69, 1.87, 8.48, repro,
1997-08-20,0.77, 4.16, 8.13, 2.73, 1.85, 8.43, repro,
1997-08-21,0.91, 3.61, 12.71, 2.64, 1.81, 8.28, repro,
1997-08-22,-0.63, 5.66, 4.45, 2.79, 1.98, 8.98, repro,
1997-08-23,-2.21, 5.46, 6.54, 2.65, 1.81, 8.29, repro,
1997-08-24,-0.42, 4.39, 15.12, 2.79, 1.95, 8.74, repro,
1997-08-25,-0.91, 3.92, 15.63, 2.81, 1.93, 8.85, repro,
1997-08-26,-1.37, 3.32, 10.94, 2.66, 1.85, 8.48, repro,
1997-08-27,-1.96, 2.51, 12.21, 2.66, 1.85, 8.46, repro,
1997-08-28,1.08, 4.65, 7.11, 2.75, 1.93, 8.75, repro,
1997-08-29,-0.43, 6.06, 10.46, 2.95, 2.00, 9.09, repro,
1997-08-30,-3.27, 2.98, 15.16, 2.84, 1.89, 8.64, repro,
1997-08-31,-0.95, 3.81, 13.32, 2.71, 1.90, 8.46, repro,
1997-09-01,-1.94, 2.38, 9.05, 2.77, 1.91, 8.70, repro,
1997-09-02,-0.20, 2.63, 1.87, 2.56, 1.78, 8.17, repro,
1997-09-03,-0.69, 2.97, 5.07, 2.67, 1.90, 8.54, repro,
1997-09-04,-0.56, 3.94, 12.06, 2.61, 1.86, 8.24, repro,
1997-09-05,-0.25, 2.39, 10.75, 2.55, 1.77, 8.06, repro,
1997-09-06,0.74, 2.66, 9.54, 2.63, 1.78, 8.24, repro,
1997-09-07,-2.27, 4.30, 19.79, 2.86, 2.03, 9.06, repro,
1997-09-08,-2.37, 3.15, 16.20, 2.61, 1.80, 8.20, repro,
1997-09-09,-0.92, 3.53, 11.78, 2.61, 1.81, 8.23, repro,
1997-09-10,-1.02, 3.42, 11.33, 2.49, 1.75, 7.97, repro,
1997-09-11,-0.70, 4.29, 11.66, 2.73, 1.92, 8.82, repro,
1997-09-12,0.80, 5.43, 14.10, 2.75, 1.91, 8.55, repro,
1997-09-13,-2.42, 3.14, 15.67, 2.58, 1.76, 8.14, repro,
1997-09-14,-1.22, 2.13, 15.85, 2.63, 1.80, 8.21, repro,
1997-09-15,-0.92, 2.79, 15.74, 2.54, 1.78, 7.98, repro,
1997-09-16,-2.57, 3.47, 19.71, 2.61, 1.83, 8.41, repro,
1997-09-17,-1.17, 2.84, 18.58, 2.63, 1.80, 8.22, repro,
1997-09-18,-0.65, 3.33, 17.91, 2.68, 1.84, 8.40, repro,
1997-09-19,-0.27, 3.14, 13.90, 2.56, 1.77, 8.01, repro,
1997-09-20,-0.20, 3.93, 5.73, 2.55, 1.80, 8.11, repro,
1997-09-21,-1.08, 4.92, 7.94, 2.51, 1.76, 7.93, repro,
1997-09-22,-1.44, 3.54, 12.21, 2.61, 1.80, 8.12, repro,
1997-09-23,-0.78, 3.25, 7.01, 2.65, 1.81, 8.25, repro,
1997-09-24,-1.48, 3.56, 16.80, 2.67, 1.79, 8.18, repro,
1997-09-25,-0.73, 2.98, 16.65, 2.60, 1.81, 8.22, repro,
1997-09-26,-1.84, 3.84, 20.84, 2.57, 1.80, 8.12, repro,
1997-09-27,-1.46, 4.80, 24.62, 2.62, 1.86, 8.44, repro,
1997-09-28,-1.72, 2.76, 19.80, 2.57, 1.80, 8.16, repro,
1997-09-29,1.37, 2.09, 23.14, 2.72, 1.92, 8.53, repro,
1997-09-30,-0.84, 2.84, 17.52, 2.60, 1.83, 8.21, repro,
1997-10-01,-0.33, 5.25, 11.86, 2.86, 2.00, 9.18, repro,
1997-10-02,-0.55, 4.77, 22.37, 2.58, 1.79, 8.11, repro,
1997-10-03,-0.27, 3.30, 29.68, 2.58, 1.77, 8.14, repro,
1997-10-04,-1.39, 3.92, 20.11, 2.73, 1.87, 8.45, repro,
1997-10-05,0.57, 4.34, 12.97, 2.66, 1.87, 8.50, repro,
1997-10-06,-0.23, 3.17, 11.51, 2.68, 1.83, 8.54, repro,
1997-10-07,-0.20, 5.21, 14.30, 2.58, 1.81, 8.22, repro,
1997-10-08,0.08, 4.54, 21.19, 2.54, 1.77, 8.02, repro,
1997-10-09,0.45, 4.62, 20.72, 2.59, 1.77, 8.20, repro,
1997-10-10,0.29, 3.33, -0.04, 2.84, 1.95, 8.96, repro,
1997-10-11,0.29, 6.03, 14.04, 2.80, 1.95, 8.58, repro,
1997-10-12,1.02, 5.39, 8.73, 2.69, 1.88, 8.66, repro,
1997-10-13,-0.54, 5.75, 30.58, 2.57, 1.77, 8.08, repro,
1997-10-14,0.68, 2.07, 2.68, 2.90, 2.01, 9.43, repro,
1997-10-15,-1.83, 2.30, -0.48, 2.75, 1.89, 8.82, repro,
1997-10-16,-0.61, 4.73, -0.95, 2.86, 1.96, 8.98, repro,
1997-10-17,-1.06, 3.26, 6.18, 3.10, 2.18, 10.05, repro,
1997-10-18,-0.93, 4.20, 9.64, 2.80, 1.94, 8.91, repro,
1997-10-19,-0.68, 3.61, 2.62, 2.69, 1.83, 8.40, repro,
1997-10-20,-1.24, 3.37, -2.38, 2.97, 2.06, 9.36, repro,
1997-10-21,0.50, 3.71, -5.81, 2.82, 1.94, 9.03, repro,
1997-10-22,-1.18, 4.68, 1.50, 2.66, 1.85, 8.43, repro,
1997-10-23,-0.57, 3.58, 6.78, 3.10, 2.12, 9.78, repro,
1997-10-24,0.21, 4.53, 5.82, 2.85, 1.96, 8.99, repro,
1997-10-26,-0.65, 4.70, 10.76, 2.68, 1.88, 8.57, repro,
1997-10-27,-2.21, 4.48, 9.51, 2.87, 2.00, 9.31, repro,
1997-10-28,-0.76, 3.34, 12.42, 2.88, 2.01, 9.06, repro,
1997-10-29,-2.63, 4.82, 10.20, 2.90, 1.99, 9.16, repro,
1997-10-30,-1.30, 3.81, 9.50, 2.70, 1.86, 8.51, repro,
1997-10-31,-0.99, 4.72, 16.06, 2.89, 2.01, 9.38, repro,
1997-11-01,2.02, 1.36, 14.25, 2.84, 1.96, 8.88, repro,
1997-11-02,0.26, 0.62, 10.52, 2.75, 1.90, 8.79, repro,
1997-11-07,-2.43, 4.81, 4.52, 3.34, 2.25, 10.54, repro,
1997-11-09,-2.22, 3.67, -0.20, 2.77, 1.95, 8.77, repro,
1997-11-10,-0.37, 3.35, 0.71, 2.93, 2.02, 9.18, repro,
1997-11-12,-2.62, 3.81, 12.48, 2.86, 1.97, 9.01, repro,
1997-11-13,-0.62, 4.33, 7.24, 2.77, 1.95, 8.88, repro,
1997-11-14,-2.37, 3.30, 3.82, 2.97, 2.09, 9.62, repro,
1997-11-20,-0.94, 3.96, 2.26, 2.97, 1.94, 9.09, repro,
1997-11-21,-1.02, 3.42, -0.87, 2.98, 2.00, 9.25, repro,
1997-11-22,1.42, 5.17, -1.22, 2.96, 2.10, 9.67, repro,
1997-11-24,-2.11, 5.04, 3.56, 3.03, 2.05, 9.51, repro,
1997-11-26,-2.14, 4.25, 11.11, 3.11, 2.19, 9.72, repro,
1997-11-27,-2.07, 5.18, 17.09, 2.78, 1.94, 8.81, repro,
1997-11-28,-1.61, 4.87, 12.69, 2.76, 1.91, 8.48, repro,
1997-11-29,-0.60, 4.00, 1.99, 2.64, 1.82, 8.18, repro,
1997-11-30,-1.75, 4.85, 5.39, 2.73, 1.84, 8.52, repro,
1997-12-01,-0.41, 4.55, 1.97, 2.93, 2.01, 9.35, repro,
1997-12-02,-1.25, 2.99, 2.12, 2.67, 1.89, 8.58, repro,
1997-12-03,-1.93, 2.98, -1.31, 2.76, 1.95, 8.76, repro,
1997-12-04,-0.83, 2.90, 2.07, 2.63, 1.82, 8.28, repro,
1997-12-06,-2.49, 3.04, -4.09, 2.90, 1.98, 9.28, repro,
1997-12-07,-0.93, 3.75, 1.52, 2.70, 1.89, 8.48, repro,
1997-12-08,-1.71, 3.87, 4.64, 2.84, 1.96, 8.99, repro,
1997-12-09,-2.68, 3.71, 10.57, 2.64, 1.82, 8.29, repro,
1997-12-10,-2.84, 3.14, 2.44, 2.76, 1.90, 8.83, repro,
1997-12-11,-2.88, 3.95, -1.10, 2.76, 1.91, 8.75, repro,
1997-12-13,-3.07, 2.60, 0.75, 2.72, 1.86, 8.53, repro,
1997-12-14,-2.35, 3.89, 3.32, 2.54, 1.78, 8.17, repro,
1997-12-15,-3.92, 4.38, 15.80, 2.81, 1.92, 8.89, repro,
1997-12-17,-1.32, 5.41, 9.64, 2.62, 1.83, 8.17, repro,
1997-12-18,0.48, 3.36, 1.00, 2.75, 1.93, 8.67, repro,
1997-12-19,-1.42, 5.12, 2.90, 2.84, 1.98, 8.87, repro,
1997-12-20,-0.93, 5.03, 3.15, 2.78, 1.97, 8.74, repro,
1997-12-21,-3.04, 4.55, -0.26, 2.67, 1.90, 8.80, repro,
1997-12-22,-1.77, 4.88, -0.22, 2.75, 1.93, 9.17, repro,
1997-12-23,-2.53, 4.54, 0.16, 2.80, 1.98, 9.21, repro,
1997-12-24,-2.40, 3.74, 2.80, 2.79, 1.93, 9.02, repro,
1997-12-25,-1.00, 4.79, 4.16, 2.79, 1.98, 9.13, repro,
1997-12-26,-0.45, 3.65, 1.21, 2.65, 1.92, 8.90, repro,
1997-12-27,-1.14, 4.92, 1.81, 3.11, 2.23, 10.33, repro,
1997-12-29,-1.19, 4.17, 4.99, 2.85, 1.99, 9.31, repro,
1997-12-31,-3.52, 4.86, 0.87, 2.73, 2.02, 9.12, repro,
1998-01-01,-1.43, 5.01, 11.43, 2.68, 1.91, 9.07, repro,
1998-01-02,-3.14, 5.00, 6.43, 2.82, 1.97, 9.50, repro,
1998-01-03,-1.59, 4.29, 0.77, 2.66, 1.91, 8.60, repro,
1998-01-04,-2.31, 5.28, -6.54, 2.75, 1.96, 9.14, repro,
1998-01-05,-2.10, 4.11, -6.39, 2.84, 2.00, 9.40, repro,
1998-01-06,-2.71, 3.64, -8.26, 2.82, 2.06, 9.24, repro,
1998-01-07,-3.14, 3.68, -3.98, 3.22, 2.29, 10.49, repro,
1998-01-08,-1.84, 3.75, -2.91, 2.93, 2.11, 9.55, repro,
1998-01-09,-2.01, 3.05, 0.69, 2.70, 1.91, 8.56, repro,
1998-01-10,-0.78, 4.54, -1.46, 2.85, 1.97, 9.09, repro,
1998-01-11,-1.39, 5.58, -6.30, 2.83, 2.02, 8.97, repro,
1998-01-12,-2.58, 6.11, -0.77, 2.83, 2.11, 9.62, repro,
1998-01-13,-1.60, 5.63, -0.00, 2.98, 2.09, 9.42, repro,
1998-01-14,-2.51, 6.59, -0.46, 2.59, 1.84, 8.31, repro,
1998-01-15,-1.89, 7.77, 2.85, 3.06, 2.16, 10.26, repro,
1998-01-16,-0.68, 6.71, 7.04, 3.02, 2.09, 9.76, repro,
1998-01-17,-1.85, 6.17, 12.00, 2.62, 1.87, 8.39, repro,
1998-01-18,-2.70, 5.57, 2.91, 2.70, 1.96, 8.74, repro,
1998-01-19,-1.84, 6.24, -3.09, 2.74, 1.94, 9.12, repro,
1998-01-20,-0.80, 2.92, -0.53, 2.59, 1.78, 8.44, repro,
1998-01-21,-1.14, 1.57, -5.83, 2.77, 1.92, 8.99, repro,
1998-01-22,1.33, 1.77, -4.77, 2.62, 1.80, 8.26, repro,
1998-01-23,1.35, 1.57, -2.52, 2.69, 1.86, 8.60, repro,
1998-01-24,1.68, 2.10, -2.26, 2.87, 1.98, 9.11, repro,
1998-01-25,2.64, 1.22, -2.84, 2.67, 1.85, 8.56, repro,
1998-01-26,0.79, 2.21, -3.37, 2.62, 1.85, 8.55, repro,
1998-01-27,-1.11, 1.78, 3.50, 2.61, 1.82, 8.42, repro,